FW6014 Weather Reports


Display with metric or nautical units.
time (UTC)temp
F
wind
direction
speed
MPH
gust
MPH
rain 1hr
in
rain 24hr
in
rain mn
in
humidity
%
barometer
mb
20260508173828 52 277 1.0 3.0 0.00 0.00 0.00 45 1008.5
20260508173116 52 277 1.0 4.0 0.00 0.00 0.00 42 1009.4
20260508172829 52 277 1.0 4.0 0.00 0.00 0.00 44 1008.6
20260508172330 52 277 1.0 4.0 0.00 0.00 0.00 48 1008.6
20260508171830 51 277 1.0 4.0 0.00 0.00 0.00 44 1008.6
20260508171519 51 277 0.0 6.0 0.00 0.00 0.00 42 1009.4
20260508171329 51 277 1.0 6.0 0.00 0.00 0.00 41 1008.6
20260508170829 51 277 1.0 6.0 0.00 0.00 0.00 44 1008.7
20260508170052 51 277 1.0 4.0 0.00 0.00 0.00 44 1009.5
20260508165329 52 277 1.0 5.0 0.00 0.00 0.00 43 1008.7
20260508164828 52 277 1.0 5.0 0.00 0.00 0.00 44 1008.7
20260508164656 52 277 1.0 5.0 0.00 0.00 0.00 44 1009.4
20260508164330 53 277 2.0 8.0 0.00 0.00 0.00 41 1008.8
20260508163822 53 277 2.0 8.0 0.00 0.00 0.00 41 1008.8
20260508163316 53 277 1.0 5.0 0.00 0.00 0.00 46 1008.7
20260508163047 52 277 1.0 5.0 0.00 0.00 0.00 44 1009.5
20260508162809 53 277 1.0 3.0 0.00 0.00 0.00 42 1008.7
20260508162307 52 277 0.0 3.0 0.00 0.00 0.00 48 1008.7
20260508161807 52 277 1.0 2.0 0.00 0.00 0.00 49 1008.7
20260508161635 51 277 0.0 2.0 0.00 0.00 0.00 48 1009.5
20260508161305 51 277 1.0 5.0 0.00 0.00 0.00 50 1008.7
20260508160803 51 277 1.0 5.0 0.00 0.00 0.00 46 1008.7
20260508160303 51 277 1.0 3.0 0.00 0.00 0.00 47 1008.7
20260508160036 50 277 1.0 4.0 0.00 0.00 0.00 49 1009.5
20260508155801 50 277 2.0 4.0 0.00 0.00 0.00 48 1008.8
20260508154632 50 277 1.0 4.0 0.00 0.00 0.00 44 1009.5
20260508154300 51 277 1.0 4.0 0.00 0.00 0.00 42 1008.7
20260508153802 51 277 1.0 4.0 0.00 0.00 0.00 41 1008.6
20260508153301 51 277 1.0 7.0 0.00 0.00 0.00 44 1008.7
20260508153031 51 277 1.0 7.0 0.00 0.00 0.00 42 1009.5
20260508152802 51 277 1.0 7.0 0.00 0.00 0.00 43 1008.7
20260508152300 51 277 2.0 8.0 0.00 0.00 0.00 44 1008.6
20260508151801 51 277 2.0 8.0 0.00 0.00 0.00 47 1008.7
20260508151629 51 277 3.0 8.0 0.00 0.00 0.00 45 1009.5
20260508151302 51 277 1.0 5.0 0.00 0.00 0.00 46 1008.6
20260508150802 51 277 1.0 4.0 0.00 0.00 0.00 46 1008.6
20260508150301 51 277 1.0 4.0 0.00 0.00 0.00 48 1008.7
20260508150038 51 277 1.0 4.0 0.00 0.00 0.00 47 1009.6
20260508145802 51 277 0.0 3.0 0.00 0.00 0.00 46 1008.7
20260508145306 52 277 1.0 2.0 0.00 0.00 0.00 46 1008.6
20260508144800 53 277 1.0 5.0 0.00 0.00 0.00 44 1008.6
20260508144622 52 277 0.0 7.0 0.00 0.00 0.00 43 1009.4
20260508144302 53 277 2.0 7.0 0.00 0.00 0.00 44 1008.6
20260508143802 53 277 1.0 7.0 0.00 0.00 0.00 44 1008.4
20260508143301 52 277 1.0 4.0 0.00 0.00 0.00 47 1008.6
20260508143024 52 277 1.0 4.0 0.00 0.00 0.00 46 1009.4
20260508142801 52 277 1.0 3.0 0.00 0.00 0.00 47 1008.6
20260508142301 51 277 1.0 4.0 0.00 0.00 0.00 51 1008.6
20260508141608 51 277 1.0 4.0 0.00 0.00 0.00 48 1009.4
20260508141302 51 277 1.0 3.0 0.00 0.00 0.00 50 1008.6
20260508140003 50 277 0.0 4.0 0.00 0.00 0.00 50 1009.7
20260508135753 50 277 1.0 4.0 0.00 0.00 0.00 47 1008.9
20260508135248 51 277 1.0 3.0 0.00 0.00 0.00 48 1008.9
20260508134742 52 277 1.0 4.0 0.00 0.00 0.00 46 1008.9
20260508134608 52 277 0.0 4.0 0.00 0.00 0.00 47 1009.7
20260508134237 53 277 1.0 4.0 0.00 0.00 0.00 48 1008.8
20260508133738 52 277 1.0 3.0 0.00 0.00 0.00 47 1008.8
20260508133002 51 277 0.0 5.0 0.00 0.00 0.00 50 1009.7
20260508132736 51 277 1.0 5.0 0.00 0.00 0.00 51 1008.9
20260508132232 51 277 1.0 3.0 0.00 0.00 0.00 50 1009.1
20260508131733 51 277 1.0 3.0 0.00 0.00 0.00 55 1008.9
20260508131604 50 277 0.0 3.0 0.00 0.00 0.00 52 1009.9
20260508131233 51 277 1.0 3.0 0.00 0.00 0.00 53 1008.9
20260508130731 50 277 1.0 3.0 0.00 0.00 0.00 56 1009.0
20260508130232 50 277 1.0 3.0 0.00 0.00 0.00 54 1009.1
20260508130002 49 277 0.0 2.0 0.00 0.00 0.00 53 1010.0
20260508125731 50 277 0.0 2.0 0.00 0.00 0.00 56 1009.2
20260508124729 49 277 0.0 1.0 0.00 0.00 0.00 57 1009.1
20260508124501 48 277 0.0 2.0 0.00 0.00 0.00 59 1010.0
20260508123731 48 277 0.0 2.0 0.00 0.00 0.00 62 1009.2
20260508123229 47 277 0.0 2.0 0.00 0.00 0.00 62 1009.3
20260508123024 46 277 1.0 2.0 0.00 0.00 0.00 60 1010.2
20260508122230 46 277 0.0 2.0 0.00 0.00 0.00 64 1009.3
20260508121730 45 277 0.0 2.0 0.00 0.00 0.00 65 1009.2
20260508121549 44 277 0.0 2.0 0.00 0.00 0.00 64 1010.0
20260508121502 44 277 0.0 2.0 0.00 0.00 0.00 65 1010.0
20260508120730 44 277 0.0 1.0 0.00 0.00 0.00 66 1009.1
20260508120136 43 277 0.0 2.0 0.00 0.00 0.00 67 1010.0
20260508115729 43 277 0.0 2.0 0.00 0.00 0.00 66 1009.0
20260508115229 43 277 0.0 1.0 0.00 0.00 0.00 68 1009.0
20260508114729 43 277 0.0 0.0 0.00 0.00 0.00 66 1009.0
20260508114535 43 277 0.0 0.0 0.00 0.00 0.00 70 1009.9
20260508113728 43 277 0.0 0.0 0.00 0.00 0.00 73 1008.9
20260508113228 43 277 0.0 0.0 0.00 0.00 0.00 68 1009.0
20260508113128 42 277 0.0 0.0 0.00 0.00 0.00 69 1009.9
20260508112729 43 277 0.0 0.0 0.00 0.00 0.00 74 1008.9
20260508112226 43 277 0.0 1.0 0.00 0.00 0.00 71 1008.9
20260508111716 42 277 0.0 1.0 0.00 0.00 0.00 69 1008.9
20260508111523 42 277 0.0 1.0 0.00 0.00 0.00 68 1009.6
20260508111214 42 277 0.0 1.0 0.00 0.00 0.00 69 1008.7
20260508110715 42 277 0.0 1.0 0.00 0.00 0.00 75 1008.7
20260508110216 41 277 0.0 1.0 0.00 0.00 0.00 67 1008.7
20260508110110 41 277 0.0 1.0 0.00 0.00 0.00 70 1009.6
20260508105715 41 277 0.0 1.0 0.00 0.00 0.00 72 1008.6
20260508105215 40 277 0.0 3.0 0.00 0.00 0.00 76 1008.6
20260508104717 39 277 1.0 3.0 0.00 0.00 0.00 73 1008.6
20260508104503 38 277 0.0 2.0 0.00 0.00 0.00 78 1009.5
20260508104214 37 277 1.0 3.0 0.00 0.00 0.00 79 1008.6
20260508103714 36 277 1.0 3.0 0.00 0.00 0.00 84 1008.6
20260508103215 35 277 0.0 1.0 0.00 0.00 0.00 84 1008.6
20260508103107 35 277 0.0 1.0 0.00 0.01 0.00 87 1009.3
20260508102714 34 277 0.0 0.0 0.00 0.00 0.00 87 1008.5
20260508102214 35 277 0.0 0.0 0.00 0.01 0.00 85 1008.3
20260508101714 33 277 0.0 0.0 0.00 0.01 0.00 90 1008.3
20260508101506 32 277 0.0 0.0 0.00 0.01 0.00 90 1009.1
20260508101213 32 277 0.0 0.0 0.00 0.01 0.00 90 1008.3
20260508100714 32 277 0.0 0.0 0.00 0.01 0.00 90 1008.2
20260508100213 33 277 0.0 1.0 0.00 0.01 0.00 88 1008.1
20260508100105 32 277 0.0 1.0 0.00 0.01 0.00 88 1009.0
20260508095713 33 277 0.0 1.0 0.00 0.01 0.00 90 1008.0
20260508095214 33 277 0.0 2.0 0.00 0.01 0.00 87 1007.9
20260508094710 32 277 0.0 2.0 0.00 0.01 0.00 90 1007.8
20260508094209 31 277 0.0 2.0 0.00 0.01 0.00 90 1007.8
20260508093709 31 277 1.0 3.0 0.00 0.01 0.00 90 1007.8
20260508093209 31 277 1.0 3.0 0.00 0.01 0.00 91 1007.7
20260508093059 31 277 1.0 3.0 0.00 0.01 0.00 92 1008.3
20260508092708 31 277 0.0 2.0 0.00 0.01 0.00 92 1007.6
20260508092210 31 277 0.0 2.0 0.00 0.01 0.00 92 1007.6
20260508091658 30 277 0.0 2.0 0.00 0.01 0.00 92 1008.4
20260508091210 31 277 0.0 0.0 0.00 0.01 0.00 92 1007.6
20260508090706 30 277 0.0 0.0 0.00 0.01 0.00 92 1007.6
20260508090205 30 277 0.0 0.0 0.00 0.01 0.00 92 1007.5
20260508090059 30 277 0.0 0.0 0.00 0.01 0.00 91 1008.3
20260508085704 30 277 0.0 0.0 0.00 0.01 0.00 91 1007.4
20260508085206 30 277 0.0 0.0 0.00 0.01 0.00 92 1007.4
20260508084703 30 277 0.0 0.0 0.00 0.01 0.00 91 1007.4
20260508084651 30 277 0.0 0.0 0.00 0.01 0.00 91 1008.2
20260508084203 30 277 0.0 0.0 0.00 0.01 0.00 91 1007.5
20260508083702 31 277 0.0 0.0 0.00 0.01 0.00 91 1007.4
20260508083202 31 277 0.0 0.0 0.00 0.01 0.00 92 1007.4
20260508083042 30 277 0.0 0.0 0.00 0.01 0.00 92 1008.2
20260508082201 31 277 0.0 0.0 0.00 0.01 0.00 91 1007.5
20260508081702 31 277 0.0 0.0 0.00 0.01 0.00 91 1007.4
20260508081631 30 277 0.0 0.0 0.00 0.01 0.00 91 1008.2
20260508081202 31 277 0.0 0.0 0.00 0.01 0.00 90 1007.4
20260508080202 31 277 0.0 0.0 0.00 0.01 0.00 91 1007.3
20260508080026 31 277 0.0 0.0 0.00 0.01 0.00 91 1008.0
20260508075702 31 277 0.0 0.0 0.00 0.01 0.00 91 1007.2
20260508074611 31 277 0.0 0.0 0.00 0.01 0.00 91 1008.0
20260508074202 31 277 0.0 0.0 0.00 0.01 0.00 90 1007.2
20260508073701 31 277 0.0 0.0 0.00 0.01 0.00 90 1007.2
20260508073008 31 277 0.0 0.0 0.00 0.01 0.01 89 1008.0
20260508072701 32 277 0.0 0.0 0.00 0.01 0.00 90 1007.3
20260508072201 32 277 0.0 0.0 0.00 0.01 0.00 89 1007.3
20260508071702 32 277 0.0 0.0 0.00 0.01 0.00 88 1007.4
20260508071606 31 277 0.0 0.0 0.00 0.01 0.01 88 1008.2
20260508071202 32 277 0.0 0.0 0.00 0.01 0.00 89 1007.4
20260508070701 32 277 0.0 0.0 0.00 0.01 0.00 90 1007.3
20260508070001 31 277 0.0 0.0 0.00 0.01 0.01 90 1008.1
20260508065701 32 277 0.0 0.0 0.00 0.01 0.00 89 1007.4
20260508065201 32 277 0.0 0.0 0.00 0.01 0.00 90 1007.4
20260508064701 32 277 0.0 0.0 0.00 0.01 0.00 89 1007.5
20260508064609 32 277 0.0 0.0 0.00 0.01 0.01 89 1008.2
20260508064200 32 277 0.0 0.0 0.00 0.01 0.00 90 1007.5
20260508063701 32 277 0.0 0.0 0.00 0.01 0.00 88 1007.6
20260508063201 33 277 0.0 0.0 0.00 0.01 0.00 88 1007.5
20260508063004 32 277 0.0 0.0 0.00 0.01 0.01 89 1008.3
20260508062700 33 277 0.0 0.0 0.00 0.01 0.00 89 1007.6
20260508062200 33 277 0.0 0.0 0.00 0.01 0.00 88 1007.6
20260508061701 33 277 0.0 0.0 0.00 0.01 0.00 87 1007.7
20260508061604 33 277 0.0 0.0 0.00 0.01 0.01 87 1008.4
20260508061202 33 277 0.0 0.0 0.00 0.01 0.00 87 1007.8
20260508060702 33 277 0.0 0.0 0.00 0.01 0.00 86 1007.7
20260508060200 33 277 0.0 0.0 0.00 0.01 0.00 87 1007.7
20260508060002 33 277 0.0 0.0 0.00 0.01 0.01 87 1008.4
20260508055658 34 277 0.0 0.0 0.00 0.01 0.00 87 1007.7
20260508055154 34 277 0.0 0.0 0.00 0.01 0.00 87 1007.8
20260508054654 34 277 0.0 0.0 0.00 0.01 0.00 86 1007.8
20260508054627 34 277 0.0 0.0 0.00 0.01 0.01 86 1008.5
20260508053652 35 277 0.0 0.0 0.00 0.01 0.00 85 1007.8
20260508053150 36 277 0.0 0.0 0.00 0.01 0.00 83 1007.8
20260508053003 35 277 0.0 0.0 0.00 0.01 0.01 81 1008.5
20260508052649 36 277 0.0 0.0 0.00 0.01 0.00 81 1008.0
20260508052142 36 277 0.0 1.0 0.00 0.01 0.00 82 1008.0
20260508051636 35 277 0.0 1.0 0.00 0.01 0.00 85 1008.2
20260508051602 35 277 0.0 1.0 0.00 0.01 0.01 85 1008.8
20260508051134 35 277 0.0 1.0 0.00 0.01 0.00 84 1008.2
20260508050636 35 277 0.0 1.0 0.00 0.01 0.00 85 1008.3
20260508050133 35 277 0.0 1.0 0.00 0.01 0.00 84 1008.4
20260508050008 35 277 0.0 1.0 0.00 0.01 0.01 84 1009.0
20260508045131 36 277 0.0 0.0 0.00 0.01 0.00 83 1008.4
20260508044630 36 277 0.0 0.0 0.00 0.01 0.00 84 1008.4
20260508044602 35 277 0.0 0.0 0.00 0.01 0.01 84 1009.1
20260508044131 36 277 0.0 0.0 0.00 0.01 0.00 84 1008.4
20260508043630 36 277 0.0 0.0 0.00 0.01 0.00 82 1008.5
20260508043151 35 277 0.0 0.0 0.00 0.03 0.01 83 1009.1
20260508043130 36 277 0.0 0.0 0.00 0.01 0.00 83 1008.5
20260508042129 36 277 0.0 0.0 0.00 0.01 0.00 82 1008.5
20260508041628 36 277 0.0 0.0 0.00 0.01 0.00 83 1008.4
20260508041540 36 277 0.0 0.0 0.00 0.03 0.01 84 1009.0
20260508041129 36 277 0.0 0.0 0.00 0.01 0.00 83 1008.5
20260508040629 37 277 0.0 0.0 0.00 0.01 0.00 82 1008.4
20260508040139 36 277 0.0 0.0 0.00 0.03 0.01 83 1009.1
20260508040130 37 277 0.0 1.0 0.00 0.02 0.00 83 1008.5
20260508035629 37 277 0.0 1.0 0.00 0.02 0.02 81 1008.5
20260508035130 37 277 0.0 1.0 0.00 0.03 0.02 78 1008.5
20260508034630 38 277 0.0 1.0 0.00 0.03 0.02 79 1008.5
20260508034530 37 277 0.0 1.0 0.00 0.03 0.01 78 1009.1
20260508034132 38 277 0.0 1.0 0.00 0.03 0.02 77 1008.6
20260508033122 37 277 0.0 1.0 0.00 0.08 0.01 79 1009.3
20260508032630 38 277 1.0 2.0 0.00 0.04 0.02 76 1008.6
20260508031629 38 277 1.0 3.0 0.00 0.04 0.02 76 1008.8
20260508031515 37 277 0.0 3.0 0.00 0.08 0.01 76 1009.4
20260508031128 38 277 0.0 2.0 0.00 0.04 0.02 76 1008.8
20260508030629 39 277 0.0 0.0 0.00 0.05 0.02 74 1008.8
20260508025626 40 277 0.0 1.0 0.00 0.05 0.02 73 1008.8
20260508025127 40 277 0.0 1.0 0.00 0.06 0.02 70 1008.7
20260508024625 40 277 0.0 1.0 0.00 0.07 0.02 64 1008.8
20260508024502 39 277 0.0 1.0 0.00 0.08 0.01 66 1009.3
20260508024118 40 277 0.0 1.0 0.00 0.07 0.02 72 1008.7
20260508023613 40 277 0.0 1.0 0.00 0.08 0.02 70 1008.7
20260508023109 41 277 0.0 1.0 0.00 0.08 0.02 67 1008.5
20260508023105 40 277 0.0 1.0 0.00 0.13 0.01 67 1009.1
20260508022607 41 277 0.0 1.0 0.00 0.08 0.02 66 1008.5
20260508021649 41 277 0.0 1.0 0.00 0.13 0.01 65 1009.0
20260508021602 42 277 1.0 1.0 0.00 0.09 0.02 67 1008.5
20260508021102 42 277 1.0 1.0 0.00 0.10 0.02 64 1008.6
20260508020601 42 277 1.0 1.0 0.00 0.12 0.02 61 1008.6
20260508020033 42 277 0.0 2.0 0.00 0.13 0.01 60 1009.1
20260508015602 43 277 1.0 2.0 0.00 0.12 0.02 57 1008.5
20260508015101 43 277 0.0 0.0 0.00 0.12 0.02 62 1008.5
20260508014629 43 277 0.0 0.0 0.00 0.13 0.01 59 1008.9
20260508014602 43 277 0.0 0.0 0.00 0.12 0.02 59 1008.4
20260508014101 43 277 0.0 0.0 0.00 0.12 0.02 59 1008.3
20260508013601 44 277 0.0 0.0 0.00 0.13 0.02 61 1008.3
20260508013016 44 277 0.0 1.0 0.00 0.13 0.01 59 1008.9
20260508012601 44 277 0.0 1.0 0.00 0.13 0.02 57 1008.3
20260508012102 45 277 1.0 1.0 0.00 0.13 0.02 54 1008.3
20260508011101 45 277 1.0 3.0 0.00 0.13 0.02 53 1008.3
20260508010015 45 277 1.0 2.0 0.00 0.13 0.01 54 1008.7
20260508005602 45 277 0.0 2.0 0.00 0.13 0.02 52 1008.2
20260508005101 46 277 1.0 2.0 0.00 0.13 0.02 53 1008.2
20260508004607 45 277 0.0 3.0 0.00 0.13 0.01 55 1008.6
20260508004601 46 277 1.0 3.0 0.00 0.13 0.02 55 1008.1
20260508003601 47 277 0.0 2.0 0.00 0.13 0.02 48 1007.9
20260508003102 47 277 0.0 4.0 0.00 0.13 0.02 49 1007.9
20260508003002 47 277 0.0 4.0 0.00 0.31 0.01 46 1008.4
20260508002602 47 277 0.0 4.0 0.00 0.13 0.02 47 1007.8
20260508002102 48 277 1.0 3.0 0.00 0.13 0.02 47 1007.8
20260508001609 47 277 0.0 3.0 0.00 0.31 0.01 47 1008.2
20260508001602 48 277 1.0 3.0 0.00 0.13 0.02 47 1007.7
20260508001102 48 277 0.0 3.0 0.00 0.13 0.02 46 1007.6
20260508000603 48 277 0.0 3.0 0.00 0.14 0.02 47 1007.5
20260508000004 48 277 0.0 3.0 0.00 0.31 0.01 47 1008.1
20260507235602 49 277 0.0 1.0 0.00 0.20 0.02 48 1007.6
20260507235100 49 277 0.0 2.0 0.00 0.26 0.02 47 1007.5
20260507234601 49 277 1.0 3.0 0.00 0.30 0.02 44 1007.5
20260507234553 49 277 0.0 3.0 0.00 0.31 0.01 44 1008.0
20260507234100 50 277 1.0 3.0 0.00 0.31 0.02 43 1007.4
20260507233147 50 277 0.0 4.0 0.00 0.38 0.01 44 1007.7
20260507233059 50 277 1.0 4.0 0.00 0.31 0.02 44 1007.2
20260507232600 50 277 1.0 4.0 0.00 0.32 0.02 44 1007.3
20260507231601 51 277 2.0 5.0 0.00 0.32 0.02 41 1007.1
20260507231536 50 277 1.0 5.0 0.00 0.38 0.01 40 1007.6
20260507231101 51 277 2.0 5.0 0.00 0.32 0.02 41 1007.0
20260507230557 52 277 1.0 5.0 0.00 0.33 0.02 41 1006.8
20260507230126 51 277 0.0 4.0 0.00 0.38 0.01 41 1007.1
20260507230058 51 277 2.0 4.0 0.00 0.35 0.02 41 1006.7
20260507225552 51 277 1.0 4.0 0.00 0.36 0.02 42 1006.6
20260507225047 51 277 1.0 3.0 0.00 0.37 0.02 42 1006.5
20260507224547 52 277 1.0 4.0 0.00 0.37 0.02 41 1006.5
20260507224524 51 277 0.0 4.0 0.00 0.38 0.01 41 1006.9
20260507224044 52 277 1.0 4.0 0.00 0.38 0.02 40 1006.4
20260507223545 52 277 1.0 4.0 0.00 0.38 0.02 40 1006.4
20260507223120 52 277 0.0 4.0 0.00 0.38 0.01 40 1006.8
20260507223042 52 277 1.0 4.0 0.00 0.38 0.02 39 1006.4
20260507222545 53 277 1.0 4.0 0.00 0.38 0.02 38 1006.3
20260507221518 53 277 0.0 5.0 0.00 0.38 0.01 39 1006.6
20260507221039 54 277 1.0 4.0 0.00 0.38 0.02 38 1006.0
20260507220541 55 277 1.0 4.0 0.00 0.38 0.02 38 1005.9
20260507215540 55 277 1.0 4.0 0.00 0.38 0.02 39 1006.0
20260507215041 56 277 1.0 4.0 0.00 0.38 0.02 37 1006.1
20260507214541 55 277 1.0 5.0 0.00 0.38 0.02 41 1006.2
20260507214523 55 277 1.0 5.0 0.00 0.38 0.01 41 1006.6
20260507214040 55 277 1.0 5.0 0.00 0.38 0.02 37 1006.1
20260507213540 56 277 1.0 4.0 0.00 0.38 0.02 38 1006.0
20260507212541 55 277 1.0 4.0 0.00 0.38 0.02 38 1006.1
20260507212031 56 277 2.0 6.0 0.00 0.38 0.02 38 1006.0
20260507211514 56 277 1.0 6.0 0.00 0.41 0.01 38 1006.3
20260507211031 56 277 1.0 5.0 0.00 0.39 0.02 39 1006.0
20260507210531 56 277 2.0 6.0 0.00 0.39 0.02 35 1005.9
20260507210108 55 277 2.0 6.0 0.00 0.41 0.01 38 1006.4
20260507210029 55 277 2.0 6.0 0.00 0.39 0.02 38 1006.0
20260507205529 55 277 2.0 5.0 0.00 0.39 0.02 37 1006.0
20260507205030 56 277 2.0 8.0 0.00 0.39 0.02 35 1005.9
20260507204529 56 277 2.0 8.0 0.00 0.40 0.02 37 1005.9
20260507204510 55 277 1.0 8.0 0.00 0.41 0.01 39 1006.3
20260507204031 55 277 1.0 5.0 0.00 0.41 0.02 40 1005.8
20260507203529 56 277 1.0 5.0 0.00 0.41 0.02 39 1005.4
20260507203102 56 277 0.0 3.0 0.00 0.45 0.01 39 1005.9
20260507203029 56 277 1.0 3.0 0.00 0.41 0.02 40 1005.4
20260507202528 57 277 1.0 3.0 0.00 0.41 0.02 37 1005.4
20260507202030 58 277 2.0 8.0 0.00 0.41 0.02 36 1005.3
20260507201530 59 277 1.0 8.0 0.00 0.41 0.02 36 1005.6
20260507201029 59 277 2.0 6.0 0.00 0.42 0.02 36 1005.3
20260507200530 58 277 1.0 6.0 0.00 0.42 0.02 34 1005.6
20260507200054 57 277 0.0 5.0 0.00 0.45 0.01 37 1005.8
20260507200029 58 277 1.0 4.0 0.00 0.42 0.02 38 1005.3
20260507195530 56 277 1.0 7.0 0.00 0.43 0.02 36 1005.6
20260507195030 56 277 1.0 7.0 0.00 0.43 0.02 36 1005.7
20260507194028 56 277 1.0 3.0 0.00 0.44 0.02 43 1005.6
20260507193530 56 277 1.0 4.0 0.00 0.44 0.02 39 1005.4
20260507193036 56 277 1.0 6.0 0.00 0.51 0.01 40 1006.0
20260507193029 56 277 2.0 6.0 0.00 0.45 0.02 40 1005.6
20260507192530 56 277 2.0 7.0 0.00 0.45 0.02 39 1005.6
20260507192029 57 277 2.0 7.0 0.00 0.46 0.02 38 1005.7
20260507191632 58 277 1.0 5.0 0.00 0.51 0.01 41 1006.1
20260507191529 58 277 2.0 5.0 0.00 0.46 0.02 39 1005.7
20260507191028 57 277 1.0 5.0 0.00 0.47 0.02 38 1005.7
20260507190530 56 277 1.0 4.0 0.00 0.48 0.02 41 1005.6
20260507185530 58 277 2.0 6.0 0.00 0.49 0.02 37 1005.9
20260507185029 59 277 3.0 11.0 0.00 0.49 0.02 37 1005.8
20260507184030 59 277 2.0 8.0 0.00 0.50 0.02 38 1005.9
20260507183529 60 277 2.0 6.0 0.00 0.51 0.02 35 1005.8
20260507183037 58 277 0.0 11.0 0.00 0.86 0.01 45 1006.2
20260507183030 58 277 3.0 11.0 0.00 0.52 0.02 45 1005.9
20260507182530 58 277 3.0 11.0 0.00 0.55 0.02 36 1006.0
20260507181630 59 277 3.0 8.0 0.00 0.86 0.01 39 1006.3
20260507181530 59 277 2.0 8.0 0.00 0.61 0.02 42 1006.0
20260507181029 59 277 2.0 9.0 0.00 0.63 0.02 40 1006.0
20260507180530 59 277 2.0 9.0 0.00 0.66 0.02 40 1006.0
20260507180030 59 277 2.0 8.0 0.00 0.71 0.02 43 1006.1
20260507180025 58 277 3.0 8.0 0.00 0.86 0.01 43 1006.5
20260507175029 58 277 2.0 7.0 0.00 0.82 0.02 46 1006.1
20260507174639 57 277 1.0 8.0 0.00 0.86 0.01 42 1006.5
20260507174529 58 277 3.0 8.0 0.00 0.84 0.02 41 1006.1
20260507174029 57 277 2.0 8.0 0.00 0.85 0.02 44 1006.1